STARLINK-32357, 61009

Orbit data source: Space-Track

STARLINK-32357, 61009 is a payload satellite owned by SpaceX/Seattle (US) in LEO that was launched on Thu, 05 Sep 2024 UTC via an FALCON 9 launch vehicle from the Air Force Eastern Test Range (AFETR). Payload-class satellites include a variety of spacecraft equipped with specific instruments for various scientific and technological missions. These include communications satellites like Starlink; space stations such as the ISS; scientific satellites like the Hubble; Earth observation satellites from companies like Planet Labs, Umbra, and HawkEye 360; GPS; miniature CubeSats for education and research; and military/defense satellites.

Loading next visibility...
Identifier
61009, 2024-158V
Orbit
LEO
Last TLE update
7 hours ago
Origin
Manufacturer
SpaceX/Seattle
Mission
Operational Commercial Communications
Bus & Motor
STARLINK V2M, Unknown motor
Mass
730 kg wet, ~700 kg dry
Launch date (UTC)
2024-09-05 (10 months ago)
Launch vehicle
FALCON 9
Launch site
Air Force Eastern Test Range (AFETR)
Object type
Payload
Rocket body
Debris
Shape & HBR
Box + 2 Pan, 29 m
Radar Cross Section
33.884 m², Large (>1 m²)

Expand to show TLE details & history

TLE from 7 hours ago
0 STARLINK-32357
1 61009U 24158V   25183.94288270  .00029655  00000-0  94982-3 0  9997
2 61009  53.1566 106.0346 0003071  77.5994 282.5351 15.32159339 47891
Epoch: 2025-07-02T22:37Z
TLE epoch observation values (Epoch: 2025-07-02T22:37:45.065Z)
Latitude
-0.00002°
Longitude
-154.61993°
Altitude
469.815 km
Speed
7.633 km/s
True Right ascension
07h 04m 08s
True Declination
0° 00' 00"
Sunlit
Object was in daylight at epoch
Visualization orbit readout
Latitude
52.58282°
Longitude
-79.00231°
Altitude
473.634 km
Speed
7.637 km/s
Apparent Right ascension
08h 08m 55s
Apparent Declination
13° 52' 53"
Sunlit
Object is in daylight
Visualization observer readout
Local Sidereal Time
17:00:20
Azimuth
310.492° NW
Elevation
-20.638°
Doppler factor
1
Orbital elements
Apogee altitude
471.731 km
Perigee altitude
467.525 km
Semi-major axis
6,847.765 km
Eccentricity
0.00031
Inclination
53.1566°
RAAN
106.0346°
Arg. of periapsis
77.5994°
True anomaly
Unknown
Mean anomaly
282.5351°
Eccentric anomaly
Unknown
Mean motion
3.83019 °/min
Orbital period
93.99 mins
BSTAR
0.00094982
Loading maneuver chart data...
Loading SW <> Apogee altitude chart data...
Loading historical data...
Loading historical data...
Loading historical data...
Loading historical data...
Loading historical data...
Loading historical data...
Loading historical data...

STARLINK-32357 Visibility forecast

Observer location: undefined°, undefined°

Span
Click to sort rows by Start time (UTC) header in descending order
Start Az.
Max El. time (UTC)
Max El. Az.
Max El.
End time (UTC)
End Az.
5 mins2025-07-03 05:25:51.353Z282.687° WNW2025-07-03 05:27:51.353Z242.27° WSW25.136°2025-07-03 05:30:51.353Z172.643° S
5 mins2025-07-03 20:42:51.353Z181.731° SSW2025-07-03 20:44:51.353Z133.09° SE26.142°2025-07-03 20:47:51.353Z71.812° E
5 mins2025-07-03 22:20:51.353Z278.194° WNW2025-07-03 22:22:51.353Z337.778° N28.78°2025-07-03 22:25:51.353Z34.602° NE
4 mins2025-07-04 03:17:51.353Z353.243° N2025-07-04 03:18:51.353Z21.224° NNE26.122°2025-07-04 03:21:51.353Z88.959° E
5 mins2025-07-04 04:54:51.353Z282.679° WNW2025-07-04 04:56:51.353Z229.488° WSW30.042°2025-07-04 04:59:51.353Z162.617° S
|